Lone Rock, WI

12:56 AM CST on February 27, 2017 (GMT -0600)
Tri-County Regional

Weather History for KLNR - April, 2014

Change the Weather History Date:

Monday, April 21, 2014

  Actual Average Record
Temperature  
Mean Temperature 60 °F -  
Max Temperature 71 °F 58 °F 78 °F (2007)
Min Temperature 52 °F 36 °F 28 °F (2011)
Degree Days  
Heating Degree Days 4    
Growing Degree Days 10 (Base 50)    
Moisture  
Dew Point 51 °F    
Average Humidity 76    
Maximum Humidity 100    
Minimum Humidity 37    
Precipitation  
Precipitation 0.01 in - - ()
Sea Level Pressure  
Sea Level Pressure 29.88 in    
Wind  
Wind Speed 6 mph (NW)    
Max Wind Speed 20 mph    
Max Gust Speed 26 mph    
Visibility 7 miles    
Events Rain    
Averages and records for this station are not official NWS values.
T = Trace of Precipitation, MM = Missing Value Source: NWS Daily Summary

Daily Weather History Graph

Daily Weather History Graph

Search for Another Location

Airport or City:

Trip Planner

Search our weather history database for the weather conditions in past years. The results will help you decide how hot, cold, wet, or windy it might be!

Date:

Astronomy

Apr. 21, 2014 Rise Set
Actual Time 6:08 AM CDT 7:50 PM CDT
Civil Twilight 5:38 AM CDT 8:20 PM CDT
Nautical Twilight 5:02 AM CDT 8:57 PM CDT
Astronomical Twilight 4:22 AM CDT 9:37 PM CDT
Moon 1:23 AM CDT (4/21) 11:33 AM CDT (4/21)
Length of Visible Light 14h 42m
Length of Day
13h 41m
Waning Gibbous, 57% of the Moon is Illuminated
Apr 21
Waning Gibbous
Apr 22
Last Quarter
Apr 29
New
May 6
First Quarter
May 14
Full

Hourly Weather History & Observations

Time (CDT) Temp. Dew Point Humidity Pressure Visibility Wind Dir Wind Speed Gust Speed Precip Events Conditions
12:56 AM 57.0 °F 55.0 °F 93% 29.95 in 6.0 mi North 5.8 mph - 0.00 in Rain Light Rain
1:56 AM 54.0 °F 54.0 °F 100% 29.94 in 3.0 mi Calm Calm - 0.00 in   Partly Cloudy
2:56 AM 55.0 °F 54.0 °F 96% 29.93 in 4.0 mi Calm Calm - N/A   Overcast
3:56 AM 54.0 °F 53.1 °F 97% 29.93 in 6.0 mi SSW 3.5 mph - N/A   Mostly Cloudy
4:56 AM 53.1 °F 52.0 °F 96% 29.91 in 2.0 mi ENE 4.6 mph - N/A   Mostly Cloudy
5:14 AM 53.1 °F 53.1 °F 100% 29.91 in 3.0 mi NE 5.8 mph - N/A   Overcast
5:56 AM 53.1 °F 52.0 °F 96% 29.90 in 4.0 mi ESE 6.9 mph - N/A   Mostly Cloudy
6:22 AM 52.0 °F 51.1 °F 97% 29.92 in 2.0 mi ESE 3.5 mph - N/A   Partly Cloudy
6:56 AM 53.1 °F 52.0 °F 96% 29.91 in 1.5 mi North 4.6 mph - N/A   Clear
7:12 AM 54.0 °F 53.1 °F 97% 29.92 in 2.0 mi Calm Calm - N/A   Clear
7:39 AM 55.9 °F 54.0 °F 93% 29.93 in 3.0 mi Calm Calm - N/A   Clear
7:56 AM 57.0 °F 55.0 °F 93% 29.91 in 5.0 mi Calm Calm - N/A   Clear
8:56 AM 59.0 °F 55.0 °F 87% 29.92 in 9.0 mi WNW 5.8 mph - N/A   Overcast
9:56 AM 61.0 °F 55.9 °F 83% 29.90 in 10.0 mi Calm Calm - N/A   Scattered Clouds
10:56 AM 64.9 °F 55.9 °F 73% 29.89 in 10.0 mi West 6.9 mph - N/A   Clear
11:56 AM 66.9 °F 55.9 °F 68% 29.87 in 10.0 mi West 9.2 mph - N/A   Clear
12:56 PM 66.9 °F 55.9 °F 68% 29.85 in 10.0 mi West 11.5 mph - N/A   Overcast
1:56 PM 64.0 °F 57.0 °F 78% 29.86 in 8.0 mi NW 9.2 mph - 0.00 in Rain Light Rain
2:56 PM 64.9 °F 59.0 °F 81% 29.85 in 10.0 mi WNW 8.1 mph - 0.01 in   Mostly Cloudy
3:06 PM 66.0 °F 59.0 °F 78% 29.86 in 10.0 mi WNW 6.9 mph - N/A   Mostly Cloudy
3:56 PM 69.1 °F 55.9 °F 63% 29.83 in 10.0 mi WNW 15.0 mph 18.4 mph N/A   Scattered Clouds
4:56 PM 69.1 °F 55.0 °F 61% 29.81 in 10.0 mi West 9.2 mph - N/A   Clear
5:56 PM 69.1 °F 55.0 °F 61% 29.80 in 10.0 mi WNW 10.4 mph - N/A   Overcast
6:56 PM 69.1 °F 46.9 °F 45% 29.79 in 10.0 mi West 16.1 mph - N/A   Scattered Clouds
7:56 PM 66.9 °F 39.9 °F 37% 29.80 in 10.0 mi WNW 11.5 mph - N/A   Clear
8:56 PM 63.0 °F 39.0 °F 41% 29.82 in 10.0 mi WNW 11.5 mph - N/A   Clear
9:56 PM 62.1 °F 37.9 °F 41% 29.85 in 10.0 mi NW 16.1 mph 26.5 mph N/A   Clear
10:56 PM 59.0 °F 35.1 °F 41% 29.88 in 10.0 mi NNW 19.6 mph 26.5 mph N/A   Clear
11:56 PM 55.0 °F 32.0 °F 42% 29.91 in 10.0 mi NNW 13.8 mph 23.0 mph N/A   Clear